TimeCET,TemperatureF,Dew PointF,Humidity,Sea Level PressureIn,VisibilityMPH,Wind Direction,Wind SpeedMPH,Gust SpeedMPH,PrecipitationIn,Events,Conditions,WindDirDegrees,DateUTC
12:00 AM,32.0,28.4,87,29.53,4.3,North,13.8,-,N/A,Snow,Light Snow,10,2012-10-27 22:00:00
12:30 AM,32.0,30.2,93,29.53,3.1,North,12.7,-,N/A,Snow,Snow,10,2012-10-27 22:30:00
1:00 AM,32.0,30.2,93,29.56,3.1,North,13.8,-,N/A,Snow,Light Snow,360,2012-10-27 23:00:00
1:30 AM,32.0,30.2,93,29.56,1.9,North,11.5,-,N/A,Snow,Snow,10,2012-10-27 23:30:00
2:00 AM,31,30,93,29.63,2,North,11.2,,,Snow,Snow,10,2012-10-28 00:00:00
2:00 AM,32.0,30.2,93,29.56,1.9,North,11.5,-,N/A,Snow,Snow,10,2012-10-28 00:00:00
2:30 AM,32.0,30.2,93,29.59,2.8,North,10.4,-,N/A,Snow,Light Snow,10,2012-10-28 00:30:00
2:00 AM,32.0,30.2,93,29.59,3.1,North,11.5,-,N/A,Snow,Light Snow,10,2012-10-28 01:00:00
2:30 AM,32.0,28.4,87,29.59,1.9,North,12.7,-,N/A,Snow,Snow,10,2012-10-28 01:30:00
3:00 AM,30.2,30.2,100,29.62,1.9,North,12.7,-,N/A,Snow,Snow,10,2012-10-28 02:00:00
3:30 AM,30.2,30.2,100,29.62,1.2,North,10.4,-,N/A,Snow,Snow,10,2012-10-28 02:30:00
4:00 AM,30.2,30.2,100,29.62,2.2,North,8.1,-,N/A,Snow,Light Snow,10,2012-10-28 03:00:00
4:30 AM,30.2,30.2,100,29.62,1.2,North,11.5,-,N/A,Snow,Snow,10,2012-10-28 03:30:00
5:00 AM,30.2,30.2,100,29.65,1.6,North,10.4,-,N/A,Snow,Snow,10,2012-10-28 04:00:00
5:30 AM,30.2,30.2,100,29.65,2.8,North,10.4,-,N/A,Snow,Light Snow,360,2012-10-28 04:30:00
6:00 AM,30.2,28.4,93,29.65,5.0,North,15.0,-,N/A,Snow,Light Snow,10,2012-10-28 05:00:00
6:30 AM,32.0,28.4,87,29.68,5.0,North,12.7,-,N/A,Snow,Light Snow,10,2012-10-28 05:30:00
7:00 AM,31,29,87,29.75,7,North,13.4,,,Snow,Light Snow,10,2012-10-28 06:00:00
7:00 AM,32.0,28.4,87,29.71,5.6,North,13.8,-,N/A,,Mostly Cloudy,10,2012-10-28 06:00:00
7:30 AM,32.0,28.4,87,29.71,6.2,North,12.7,-,N/A,Snow,Light Snow,10,2012-10-28 06:30:00
8:00 AM,32.0,30.2,93,29.71,6.2,NNE,15.0,-,N/A,,Overcast,20,2012-10-28 07:00:00
8:30 AM,32.0,28.4,87,29.74,6.2,NNE,13.8,-,N/A,,Overcast,20,2012-10-28 07:30:00
9:00 AM,32.0,28.4,87,29.74,6.2,NNE,12.7,-,N/A,,Overcast,20,2012-10-28 08:00:00
9:30 AM,32.0,28.4,87,29.74,6.2,NNE,13.8,-,N/A,,Overcast,20,2012-10-28 08:30:00
10:00 AM,32.0,28.4,87,29.77,6.2,NNE,13.8,-,N/A,,Overcast,20,2012-10-28 09:00:00
10:30 AM,32.0,28.4,87,29.77,6.2,NNE,11.5,-,N/A,,Overcast,20,2012-10-28 09:30:00
11:00 AM,32.0,28.4,87,29.80,6.2,NNE,13.8,-,N/A,,Mostly Cloudy,20,2012-10-28 10:00:00
11:30 AM,33.8,28.4,81,29.80,6.2,North,15.0,-,N/A,,Overcast,10,2012-10-28 10:30:00
12:00 PM,33.8,28.4,81,29.80,6.2,NNE,13.8,-,N/A,,Mostly Cloudy,20,2012-10-28 11:00:00
12:30 PM,33.8,28.4,81,29.80,6.2,NNE,15.0,-,N/A,,Mostly Cloudy,20,2012-10-28 11:30:00
1:00 PM,34,29,73,29.86,9,NNE,13.4,,,,Partly Cloudy,20,2012-10-28 12:00:00
1:00 PM,33.8,28.4,81,29.80,6.2,NNE,12.7,-,N/A,,Mostly Cloudy,20,2012-10-28 12:00:00
1:30 PM,33.8,30.2,87,29.83,6.2,NNE,16.1,-,N/A,,Mostly Cloudy,20,2012-10-28 12:30:00
2:00 PM,33.8,28.4,81,29.83,6.2,NNE,11.5,-,N/A,,Mostly Cloudy,20,2012-10-28 13:00:00
2:30 PM,33.8,30.2,87,29.83,6.2,NNE,12.7,-,N/A,,Mostly Cloudy,20,2012-10-28 13:30:00
3:00 PM,33.8,30.2,87,29.86,6.2,North,13.8,-,N/A,,Mostly Cloudy,10,2012-10-28 14:00:00
3:30 PM,33.8,30.2,87,29.86,6.2,NNE,13.8,-,N/A,,Mostly Cloudy,20,2012-10-28 14:30:00
4:00 PM,33.8,30.2,87,29.86,5.6,NNE,12.7,-,N/A,,Scattered Clouds,20,2012-10-28 15:00:00
4:30 PM,33.8,30.2,87,29.86,5.0,NNE,11.5,-,N/A,,Scattered Clouds,20,2012-10-28 15:30:00
5:00 PM,33.8,30.2,87,29.89,5.0,North,10.4,-,N/A,,Mostly Cloudy,10,2012-10-28 16:00:00
5:30 PM,32.0,30.2,93,29.89,5.0,NNE,9.2,-,N/A,,Mostly Cloudy,20,2012-10-28 16:30:00
6:00 PM,32.0,30.2,93,29.92,4.3,NNE,9.2,-,N/A,,Mostly Cloudy,20,2012-10-28 17:00:00
6:30 PM,32.0,30.2,93,29.92,4.3,NNE,10.4,-,N/A,,Mostly Cloudy,30,2012-10-28 17:30:00
7:00 PM,32,29,86,29.99,4,NNE,11.2,,,,Mist,20,2012-10-28 18:00:00
7:00 PM,32.0,30.2,93,29.95,3.7,NNE,10.4,-,N/A,,Mostly Cloudy,20,2012-10-28 18:00:00
7:30 PM,32.0,30.2,93,29.95,3.7,NNE,11.5,-,N/A,,Overcast,30,2012-10-28 18:30:00
8:00 PM,32.0,30.2,93,29.95,3.7,NNE,12.7,-,N/A,,Mostly Cloudy,20,2012-10-28 19:00:00
8:30 PM,32.0,30.2,93,29.95,3.7,NNE,10.4,-,N/A,,Mostly Cloudy,30,2012-10-28 19:30:00
9:00 PM,33.8,30.2,87,29.95,3.7,NNE,11.5,-,N/A,,Overcast,30,2012-10-28 20:00:00
9:30 PM,33.8,30.2,87,29.95,3.7,NE,13.8,-,N/A,,Overcast,40,2012-10-28 20:30:00
10:00 PM,32.0,30.2,93,29.95,3.7,NE,13.8,-,N/A,,Overcast,40,2012-10-28 21:00:00
10:30 PM,32.0,30.2,93,29.95,3.7,NNE,12.7,-,N/A,,Mostly Cloudy,30,2012-10-28 21:30:00